SL-16 DEB, 22665

Orbit data source: Space-Track

SL-16 DEB, 22665 is space debris in LEO originally from a launch on Fri, 25 Dec 1992 UTC launched from the Tyuratam Missile And Space Complex (TTMTR). Debris objects in space refer to the collection of defunct objects orbiting the Earth. Examples of debris include non-operational satellites, rocket bodies, and fragments generated from explosions, collisions, or faulty payload assembly.

Loading next visibility...
Identifier
22665, 1992-093JA
Orbit
LEO
Country
Flag of CISCIS
Related business
Manufacturer
Unknown
Mission
Spacecraft
Bus & Motor
Unknown
Mass
Unknown
Launch date (UTC)
1992-12-25 (33 years ago)
Launch vehicle
Unknown
Launch site
Tyuratam Missile And Space Complex (TTMTR)
Object type
Payload
Rocket body
Debris
Shape & HBR
Unknown shape, 0.1 m
Radar Cross Section
Small (<0.1 m²)

Expand to show TLE details & history
Last TLE update: 20 hours ago

TLE from 20 hours ago
0 SL-16 DEB
1 22665U 92093JA  25349.50329681  .00000521  00000-0  33001-3 0  9999
2 22665  71.0786  12.0265 0066216  27.8789 120.8652 14.07444092675984
Epoch: 2025-12-15T12:04Z
TLE epoch observation values (Epoch: 2025-12-15T12:04:44.844Z)
Latitude
28.84772°
Longitude
-84.38769°
Altitude
896.037 km
Speed
7.394 km/s
True Right ascension
12h 04m 48s
True Declination
28° 42' 19"
Sunlit
Object was in daylight at epoch
Visualization orbit readout
Latitude
Unknown
Longitude
Unknown
Altitude
Unknown
Speed
Unknown
Apparent Right ascension
Unknown
Apparent Declination
Unknown
Sunlit
N/A
Visualization observer readout
Local Sidereal Time
06:17:46
Azimuth
Unknown
Elevation
Unknown
Doppler factor
Unknown
Orbital elements
Apogee altitude
914.024 km
Perigee altitude
818.088 km
Semi-major axis
7,244.193 km
Eccentricity
0.00662
Inclination
71.0786°
RAAN
12.0265°
Arg. of periapsis
27.8789°
True anomaly
121.51375°
Mean anomaly
120.8652°
Eccentric anomaly
121.18975°
Mean motion
3.52013 °/min
Orbital period
102.27 mins
BSTAR
0.00033001
Loading maneuver chart data...
Computing Atmospheric mass density...
Loading historical data...
Loading historical data...
Loading historical data...
Loading historical data...
Loading historical data...
Loading historical data...
Loading historical data...

Documentation

Showing up to 5 results
|